Tracking 31027 objects as of 19-Jul-2025
HD Live streaming from Space Station
objects crossing your sky now

STARLINK-1762

Track STARLINK-1762 now!
10-day predictions
STARLINK-1762 is classified as:


NORAD ID: 46342
Int'l Code: 2020-062T
Perigee: 553.1 km
Apogee: 555.6 km
Inclination: 53.1 °
Period: 95.6 minutes
Semi major axis: 6925 km
RCS: Unknown
Launch date: September 3, 2020
Source: United States (US)
Launch site: AIR FORCE EASTERN TEST RANGE (AFETR)
Your satellite tracking list
FREGAT DEB
Track 1 satellite(s)




NASA's NSSDC Master Catalog

Two Line Element Set (TLE):
1 46342U 20062T   25199.84038679 -.00001354  00000-0 -72019-4 0  9998
2 46342  53.0572 346.4070 0001783 102.0482 258.0707 15.06405247269069
Source of the keplerian elements: AFSPC